{"data":{"norad_id":64180,"intl_designator":"2025-113L","name":"STARLINK-34000","alt_names":[],"object_type":"PAYLOAD","status":"ACTIVE","operator":null,"country":"US","launch_date":"2025-05-28","launch_site_code":"AFETR","launch_vehicle":null,"mission":null,"orbit_class":"UNKNOWN","rcs_meters":null,"size_class":null,"mass_kg":null,"dimensions":null,"purposes":["comms"],"wikipedia_slug":null,"has_3d_model":false,"image_url":null,"decayed_at":null,"tle_current":{"epoch":"2026-05-25T03:33:15.312960Z","epoch_age_seconds":59357,"freshness":"FRESH","line1":"1 64180U 25113L   26145.14809390  .00022814  00000+0  78058-3 0  9990","line2":"2 64180  53.1578  95.8155 0001371  86.2415 273.8742 15.30177439 56735","mean_motion":15.30177439,"eccentricity":0.0001371,"inclination_deg":53.1578,"raan_deg":95.8155,"arg_perigee_deg":86.2415,"mean_anomaly_deg":273.8742,"bstar":0.00078058,"rev_number":5673,"period_min":94.106733199587,"perigee_km":474.34282952204,"apogee_km":476.22203713065,"semimajor_km":6853.4194333263,"source":"CELESTRAK","updated_at":"2026-05-25T13:38:20.311332Z"}}}